This demonstration page uses our WeatherBlox Daily Observations layout. Learn more.

Left ArrowRight Arrow

39.95238, -75.16362

Hourly Observations for May 14, 2018

Temp ( °F °C ) Dew Point ( °F °C ) Humidity (%) Winds ( mph kmh ) Pressure ( in mb ) Visibility ( mi km ) Precip ( " mm )
12:07 am 00:07 Cloudy 54 12.2 53 11.7 97 97 N 5 7 30.06 1018 10 16 0.01 0.25
12:21 am 00:21 Cloudy 54 12.2 52 11.1 93 93 E 5 7 30.06 1018 10 16 0.01 0.25
12:38 am 00:38 Cloudy 54 12.2 53 11.7 97 97 E 5 7 30.06 1018 10 16 0.01 0.25
12:54 am 00:54 Cloudy 54 12.2 53 11.7 97 97 ESE 6 9 30.04 1017 10 16 0.00 0.00
1:54 am 01:54 Cloudy 54 12.2 53 11.7 97 97 E 3 6 30.03 1017 10 16 0.00 0.00
2:06 am 02:06 Cloudy 54 12.2 52 11.1 93 93 ESE 6 9 30.03 1017 10 16 0.00 0.00
2:54 am 02:54 Cloudy 54 12.2 52 11.1 93 93 ESE 5 7 30.00 1016 10 16 0.00 0.00
3:05 am 03:05 Cloudy 54 12.2 52 11.1 93 93 E 5 7 30.00 1016 10 16 0.00 0.00
3:37 am 03:37 Cloudy 54 12.2 52 11.1 93 93 Calm 30.00 1016 10 16 0.00 0.00
3:54 am 03:54 Cloudy 54 12.2 52 11.1 93 93 E 5 7 30.00 1016 10 16 0.00 0.00
4:33 am 04:33 Cloudy 54 12.2 52 11.1 93 93 ENE 5 7 30.00 1016 10 16 0.00 0.00
4:54 am 04:54 Cloudy 54 12.2 52 11.1 93 93 E 6 9 30.00 1016 10 16 0.00 0.00
5:54 am 05:54 Cloudy 53 11.7 52 11.1 96 96 NNE 7 11 30.02 1017 10 16 0.00 0.00
6:00 am 06:00 Cloudy 53 11.7 53 11.7 100 100 NNE 6 9 30.03 1017 7 11 0.00 0.00
6:10 am 06:10 Cloudy with Mist and Fog 54 12.2 53 11.7 97 97 NNE 5 7 30.03 1017 5 8 0.00 0.00
6:54 am 06:54 Cloudy with Mist and Fog 54 12.2 53 11.7 97 97 NNE 5 7 30.03 1017 6 10 0.00 0.00
7:54 am 07:54 Cloudy with Mist and Fog 55 12.8 53 11.7 93 93 Calm 30.04 1017 6 10 0.00 0.00
8:54 am 08:54 Cloudy with Mist and Fog 56 13.3 54 12.2 93 93 Calm 30.04 1017 5 8 0.00 0.00
9:17 am 09:17 Cloudy with Mist and Fog 57 13.9 54 12.2 90 90 VRB 3 6 30.03 1017 5 8 0.00 0.00
9:54 am 09:54 Cloudy with Mist and Fog 57 13.9 54 12.2 90 90 Calm 30.04 1017 6 10 0.00 0.00
10:54 am 10:54 Cloudy with Mist and Fog 59 15 55 12.8 87 87 SE 3 6 30.04 1017 6 10 0.00 0.00
11:30 am 11:30 Cloudy 61 16.1 56 13.3 84 84 S 7 11 30.03 1017 7 11 0.00 0.00
11:54 am 11:54 Cloudy 61 16.1 56 13.3 84 84 S 6 9 30.04 1017 7 11 0.00 0.00
12:54 pm 12:54 Cloudy 64 17.8 57 13.9 78 78 VRB 3 6 30.02 1017 7 11 0.00 0.00
1:02 pm 13:02 Mostly Cloudy 65 18.3 58 14.4 78 78 WSW 6 9 30.03 1017 8 13 0.00 0.00
1:54 pm 13:54 Partly Cloudy 66 18.9 58 14.4 75 75 VRB 5 7 30.01 1016 8 13 0.00 0.00
2:54 pm 14:54 Partly Cloudy 70 21.1 59 15 68 68 SSW 8 13 29.99 1016 9 14 0.00 0.00
3:42 pm 15:42 Partly Cloudy 71 21.7 61 16.1 71 71 SSW 7 11 29.97 1015 10 16 0.00 0.00
3:54 pm 15:54 Partly Cloudy 72 22.2 61 16.1 68 68 SSW 7 11 29.96 1015 10 16 0.00 0.00
4:54 pm 16:54 Partly Cloudy 73 22.8 62 16.7 69 69 SSW 9 15 29.95 1014 10 16 0.00 0.00
5:54 pm 17:54 Partly Cloudy 73 22.8 62 16.7 69 69 S 10 17 29.93 1013 10 16 0.00 0.00
6:54 pm 18:54 Mostly Cloudy 71 21.7 63 17.2 76 76 SSW 9 15 29.94 1014 10 16 0.00 0.00
7:54 pm 19:54 Mostly Cloudy 70 21.1 63 17.2 79 79 S 7 11 29.94 1014 10 16 0.00 0.00
8:54 pm 20:54 Cloudy 68 20 63 17.2 84 84 SSE 8 13 29.90 1012 9 14 0.00 0.00
9:54 pm 21:54 Cloudy 68 20 64 17.8 87 87 SSW 9 15 29.95 1014 8 13 0.00 0.00
10:54 pm 22:54 Cloudy 67 19.4 63 17.2 87 87 SSW 8 13 29.95 1014 8 13 0.00 0.00
11:54 pm 23:54 Cloudy 65 18.3 62 16.7 90 90 SSE 3 6 29.93 1013 9 14 0.00 0.00

Powered by AerisWeather